Location: Góry Miechowskie
(50.3599°N, 20.1803°E)
Time: 07:01:17
(UTC+00:00)

Cosmos 1461 - Pass Details

Date: 14 September 2024
Orbit: 489 x 565 km, 65.0° (Epoch: 12 October)

Event Time Altitude Azimuth Distance (km) Brightness Sun altitude
Exits shadow 23:48:39 12° 34° (NE) 1,597 5.9 -34.4°
Drops below altitude 10° 23:48:53 10° 35° (NE) 1,690 6.1 -34.4°
Sets 23:51:04 0° 39° (NE) 2,580 7.2 -34.2°
